Weather History for Annette Island, AK

Change the Weather History Date:

Wednesday, March 27, 2013

  Actual Average Record
Temperature  
Mean Temperature 41 °F 41 °F  
Max Temperature 47 °F 47 °F 55 °F (1993)
Min Temperature 34 °F 36 °F 28 °F (1965)
Degree Days  
Heating Degree Days 24 24  
Month to date heating degree days 719 690  
Since 1 July heating degree days 5245 5228  
Cooling Degree Days 0    
Month to date cooling degree days 0  
Year to date cooling degree days 0  
Moisture  
Dew Point 27 °F    
Average Humidity 0    
Maximum Humidity 0    
Minimum Humidity 0    
Precipitation  
Precipitation 0.00 in 0.26 in 2.00 in (1981)
Month to date precipitation 4.34 6.99  
Year to date precipitation 25.90 25.03  
Snow  
Snow 0.00 in 0.20 in 3.90 in (1967)
Month to date snowfall 0.9 6.3  
Since 1 July snowfall 12.8 32.8  
Snow Depth 0.00 in    
Sea Level Pressure  
Sea Level Pressure 30.12 in    
Wind  
Wind Speed 6 mph (NNW)    
Max Wind Speed 15 mph    
Max Gust Speed 18 mph    
Visibility 10 miles    
Events      
T = Trace of Precipitation, MM = Missing Value Source: NWS Daily Summary

Daily Weather History Graph

Daily Weather History Graph

Search for Another Location

Airport:

Trip Planner

Search our weather history database for the weather conditions in past years. The results will help you decide how hot, cold, wet, or windy it might be!

Date:

Astronomy

Mar. 27, 2013 Rise Set
Actual Time 6:29 AM AKDT 7:14 PM AKDT
Civil Twilight 5:53 AM AKDT 7:51 PM AKDT
Nautical Twilight 5:08 AM AKDT 8:35 PM AKDT
Astronomical Twilight 4:21 AM AKDT 9:23 PM AKDT
Moon 8:21 PM AKDT (3/27) 6:15 AM AKDT (3/27)
Length of Visible Light 13h 58m
Length of Day
12h 44m
Full, 100% of the Moon is Illuminated
Mar 27
Full
Apr 2
Last Quarter
Apr 10
New
Apr 18
First Quarter
Apr 25
Full

Hourly Weather History & Observations

Time (AKDT) Temp. Windchill Dew Point Humidity Pressure Visibility Wind Dir Wind Speed Gust Speed Precip Events Conditions
12:53 AM 35.1 °F 32.2 °F 26.1 °F 70% 30.13 in 10.0 mi NNW 3.5 mph - N/A   Clear
1:53 AM 35.1 °F 31.0 °F 27.0 °F 72% 30.13 in 10.0 mi NNW 4.6 mph - N/A   Clear
2:53 AM 35.1 °F 31.0 °F 27.0 °F 72% 30.13 in 10.0 mi NNW 4.6 mph - N/A   Clear
3:53 AM 34.0 °F 29.8 °F 27.0 °F 75% 30.12 in 10.0 mi NNW 4.6 mph - N/A   Clear
4:53 AM 34.0 °F 29.8 °F 27.0 °F 75% 30.13 in 10.0 mi North 4.6 mph - N/A   Clear
5:53 AM 34.0 °F 28.8 °F 27.0 °F 75% 30.12 in 10.0 mi NNW 5.8 mph - N/A   Clear
6:53 AM 34.0 °F 28.0 °F 27.0 °F 75% 30.12 in 10.0 mi NNW 6.9 mph - N/A   Clear
7:53 AM 36.0 °F 31.1 °F 28.0 °F 73% 30.12 in 10.0 mi NNW 5.8 mph - N/A   Clear
8:53 AM 39.0 °F 32.8 °F 28.0 °F 65% 30.12 in 10.0 mi NNW 9.2 mph - N/A   Mostly Cloudy
9:53 AM 41.0 °F 34.7 °F 28.0 °F 60% 30.13 in 10.0 mi NNW 10.4 mph - N/A   Mostly Cloudy
10:53 AM 43.0 °F 36.8 °F 28.0 °F 56% 30.12 in 10.0 mi NW 11.5 mph - N/A   Mostly Cloudy
11:53 AM 44.1 °F 38.1 °F 27.0 °F 51% 30.12 in 10.0 mi NW 11.5 mph - N/A   Mostly Cloudy
12:53 PM 45.0 °F 39.7 °F 26.1 °F 48% 30.12 in 10.0 mi NW 10.4 mph - N/A   Mostly Cloudy
1:53 PM 45.0 °F 40.6 °F 28.9 °F 53% 30.12 in 10.0 mi WNW 8.1 mph - N/A   Mostly Cloudy
2:53 PM 46.0 °F 41.4 °F 28.9 °F 51% 30.11 in 10.0 mi WNW 9.2 mph - N/A   Overcast
3:53 PM 45.0 °F 40.6 °F 28.0 °F 52% 30.11 in 10.0 mi NW 8.1 mph - N/A   Overcast
4:53 PM 45.0 °F 39.7 °F 27.0 °F 49% 30.11 in 10.0 mi NW 10.4 mph - N/A   Overcast
5:53 PM 44.1 °F 38.6 °F 27.0 °F 51% 30.12 in 10.0 mi NNW 10.4 mph - N/A   Clear
6:53 PM 42.1 °F 36.6 °F 28.0 °F 58% 30.12 in 10.0 mi NNW 9.2 mph - N/A   Clear
7:53 PM 39.9 °F 36.7 °F 28.0 °F 63% 30.11 in 10.0 mi NNW 4.6 mph - N/A   Clear
8:53 PM 39.0 °F 34.8 °F 28.9 °F 67% 30.12 in 10.0 mi NNW 5.8 mph - N/A   Clear
9:53 PM 37.9 °F 33.5 °F 28.0 °F 68% 30.12 in 10.0 mi NNW 5.8 mph - N/A   Clear
10:53 PM 37.9 °F 32.7 °F 27.0 °F 65% 30.12 in 10.0 mi NNW 6.9 mph - N/A   Clear
11:53 PM 37.0 °F 31.6 °F 27.0 °F 67% 30.13 in 10.0 mi NNW 6.9 mph - N/A   Clear